Regional Weather Roundup
Issued by NWS Upton, NY

Current Version | Previous Version | Text Only | Print | Product List | Glossary Off
Versions: 1 2 3 4 5 6 7 8 9 10 11 12 13 14 15 16 17 18 19 20 21 22 23 24 25 26

000
ASUS41 KOKX 211005
RWROKX

REGIONAL WEATHER ROUNDUP
NATIONAL WEATHER SERVICE NEW YORK NY
600 AM EDT MON APR 21 2014

NOTE: "FAIR" INDICATES FEW OR NO CLOUDS BELOW 12,000 FEET WITH NO
SIGNIFICANT WEATHER AND/OR OBSTRUCTIONS TO VISIBILITY.

NYZ071-072-176-178-NJZ106-104-211100-
NEW YORK CITY METRO AREA


CITY           SKY/WX    TMP DP  RH WIND       PRES   REMARKS
CENTRAL PARK   CLEAR     42  29  59 E6        30.26R
LAGUARDIA APRT CLEAR     41  32  70 NE3       30.24R
KENNEDY INTL   PTCLDY    38  28  67 NE5       30.25S WCI  34
NEWARK/LIBERTY PTCLDY    38  28  67 NE3       30.23F
TETERBORO      CLEAR     39  29  67 N3        30.23S
$$

NYZ177-179-078>081-211100-
LONG ISLAND NEW YORK

CITY           SKY/WX    TMP DP  RH WIND       PRES   REMARKS
FARMINGDALE    CLEAR     35  30  82 N5        30.23F WCI  31
ISLIP          PTCLDY    34  29  82 N6        30.22S WCI  29
SHIRLEY        CLEAR     30  29  96 CALM      30.24F
WESTHAMPTON    MOCLDY    25  21  85 CALM      30.24F
MONTAUK POINT    N/A     33  28  81 CALM      30.24F
$$

NYZ052-065-067-211100-
HUDSON VALLEY

CITY           SKY/WX    TMP DP  RH WIND       PRES   REMARKS
WHITE PLAINS   CLEAR     34  28  79 NW3       30.22S
NEWBURGH       CLEAR     36  28  75 CALM      30.23S
MONTGOMERY     CLEAR     31  28  89 CALM      30.22S
POUGHKEEPSIE   CLEAR     33  29  85 CALM      30.22F
ALBANY         PTCLDY    40  27  59 CALM      30.20S
$$

NJZ001-105-106-008-010-013-015-019>022-104-211100-
NEW JERSEY

CITY           SKY/WX    TMP DP  RH WIND       PRES   REMARKS
NEWARK/LIBERTY PTCLDY    38  28  67 NE3       30.23F
TETERBORO      CLEAR     39  29  67 N3        30.23S
CALDWELL       CLEAR     33  29  85 CALM      30.25S
MORRISTOWN     CLEAR     32  28  86 CALM      30.24R
SOMERVILLE     CLEAR     29  26  89 NW5       30.22F WCI  24
LINDEN         FAIR      39  29  68 CALM      30.26S
SUSSEX         CLEAR     30  27  88 CALM      30.22F
ANDOVER          N/A     30  28  92 CALM      30.23S
TRENTON        CLEAR     34  25  69 NW3       30.23R
MILLVILLE      CLEAR     36  31  82 N3        30.21S
ATLANTIC CITY  CLEAR     32  29  88 N5        30.21S WCI  27
WRIGHTSTOWN    CLEAR     32  28  84 N6        30.20F WCI  26
TOMS RIVER     PTCLDY    30  25  80 N3        30.23S
BELMAR         CLEAR     34  27  75 N5        30.22S WCI  30
$$

PAZ047>061-062-071-211100-
EASTERN PENNSYLVANIA

CITY           SKY/WX    TMP DP  RH WIND       PRES   REMARKS
PHILADELPHIA   PTCLDY    40  26  57 NE7       30.24F
ALLENTOWN      CLEAR     33  27  78 CALM      30.23S
SCRANTON       CLEAR     38  22  52 S6        30.19F WCI  33
$$

CTZ002-004>006-009-010-012-RIZ004-006-007-MAZ004-011-015-211100-
SOUTHERN NEW ENGLAND
 IN CT

CITY           SKY/WX    TMP DP  RH WIND       PRES   REMARKS
BRADLEY INTL   PTCLDY    31  26  82 CALM      30.22F
HARTFORD       CLEAR     32  29  88 CALM      30.24S
DANBURY        CLEAR     29  25  85 SW3       30.24S
WTRBRY/OXFORD  CLEAR     34  23  64 CALM      30.24S
BRIDGEPORT     CLEAR     35  30  82 N3        30.24F
MERIDEN        CLEAR     29  27  92 CALM      30.24S
NEW HAVEN      CLEAR     31  28  89 CALM      30.24F
CHESTER        FAIR      32  30  93 NW5       30.24R WCI  27
GROTON         MOCLDY    31  30  96 N3        30.23F
WILLIMANTIC    CLEAR     30  26  85 N3        30.25R

 IN RI

CITY           SKY/WX    TMP DP  RH WIND       PRES   REMARKS
PROVIDENCE     CLOUDY    36  34  92 W5        30.25R FOG     WCI  32
BLOCK ISLAND   CLEAR     34  28  80 CALM      30.22F
WESTERLY       MOCLDY    31  29  92 CALM      30.24F FOG

 IN MA

CITY           SKY/WX    TMP DP  RH WIND       PRES   REMARKS
BOSTON         PTCLDY    37  30  75 S7        30.24F WCI  32
WORCESTER      CLEAR     36  20  52 W12       30.19F WCI  28
WESTFIELD      CLEAR     30  25  81 CALM      30.22F
PROVINCETOWN   CLEAR     36  34  93 MISG      30.25S
NANTUCKET      CLEAR     36  33  89 E3        30.23F
$$

ANZ330-335-338-340-345-350-353-355-211100-
COASTAL MARINE OBSERVATIONS


STATION/POSITION TIME  SKY/WX   TEMP    WIND        PRES    VSBY  WAVE
                                AIR SEA DIR/SP/G                  HT/PER
                 (UTC)          (F)     (DEG/KT/KT) (MB)    (MI)  (FT/S)
NY HARB ENTRANCE 1000            42 44  VRB  8/ 10  1023.6
4S FIRE IS       0900               45                N/A           4/ 9
23SW MTP         1000            42 42   80/  6/  6 1023.1          4/ 8
HUDSON CANYON    0900            44 44   60/ 12/ 14 1022.3          6/ 8
EXECUTION ROCKS  1000            41 44   50/  4/  6   N/A
WESTERN LI SOUND 1000            41      10/  4/  6   N/A           0
CENTRAL LI SOUND 1000            40 42   50/  6/  6   N/A           0
EASTERN LI SOUND NOT AVBL
ROBBINS REEF     1000            44      80/  5/  6   N/A
$$


>>>>>>>>>>>>>>>>>>>>>>>>>>>> KEY <<<<<<<<<<<<<<<<<<<<<<<<<<<
>                                                          <
>     SKY/WX - SKY CONDITION/PRESENT WEATHER               <
>     TMP    - TEMPERATURE IN FAHRENHEIT                   <
>     DP     - DEWPOINT IN FAHRENHEIT                      <
>     RH     - RELATIVE HUMIDITY IN PERCENT                <
>     WIND   - DIRECTION AND SPEED IN MPH                  <
>     PRES   - MEAN SEA LEVEL PRESSURE IN INCHES OF HG     <
>     WCI    - WIND CHILL INDEX                            <
>     VSB    - VISIBILITY IN MILES                         <
>     HX     - HEAT INDEX                                  <
>     TC     - TEMPERATURE IN CELSIUS                      <
>     VRB    - VARIABLE WIND DIRECTION                     <
>                                                          <
>>>>>>>>>>>>>>>>>>>>>>>>>>>> KEY <<<<<<<<<<<<<<<<<<<<<<<<<<<





USA.gov is the U.S. government's official web portal to all federal, state and local government web resources and services.